This is the latest recevied weather packets stored in our database for station/object 9A7DI-13. If no packets are shown the sender has not sent any weather packets the latest 10 day(s).
| Time | Temp. | Humidity | Pressure | Rain* | Wind** | Luminosity | Snow |
|---|---|---|---|---|---|---|---|
| 1788497202 | 18.33° C | 75% | 1028.8 hPa | - | - | - | - |
| 1788496602 | 18.33° C | 75% | 1029 hPa | - | - | - | - |
| 1788496002 | 18.33° C | 75% | 1028.8 hPa | - | - | - | - |
| 1788495402 | 18.33° C | 75% | 1028.8 hPa | - | - | - | - |
| 1788494802 | 18.33° C | 79% | 1028.8 hPa | - | - | - | - |
| 1788494202 | 17.78° C | 81% | 1028.8 hPa | - | - | - | - |
| 1788493602 | 18.33° C | 81% | 1028.9 hPa | - | - | - | - |
| 1788493002 | 18.33° C | 82% | 1028.9 hPa | - | - | - | - |
| 1788492402 | 18.33° C | 81% | 1029 hPa | - | - | - | - |
| 1788491802 | 18.33° C | 80% | 1028.9 hPa | - | - | - | - |
| 1788491202 | 18.33° C | 78% | 1028.8 hPa | - | - | - | - |
| 1788490602 | 18.33° C | 80% | 1028.7 hPa | - | - | - | - |
| 1788490002 | 18.33° C | 80% | 1028.8 hPa | - | - | - | - |
| 1788489402 | 18.33° C | 78% | 1028.9 hPa | - | - | - | - |
| 1788488802 | 18.89° C | 78% | 1028.9 hPa | - | - | - | - |
| 1788488202 | 18.89° C | 75% | 1028.8 hPa | - | - | - | - |
| 1788487602 | 18.33° C | 78% | 1028.8 hPa | - | - | - | - |
| 1788487002 | 18.33° C | 80% | 1028.8 hPa | - | - | - | - |
| 1788486402 | 18.33° C | 79% | 1028.8 hPa | - | - | - | - |
| 1788485802 | 18.33° C | 82% | 1028.9 hPa | - | - | - | - |
| 1788485202 | 18.33° C | 80% | 1028.8 hPa | - | - | - | - |
| 1788484602 | 18.33° C | 81% | 1028.8 hPa | - | - | - | - |
| 1788484002 | 17.78° C | 83% | 1029 hPa | - | - | - | - |
| 1788483402 | 17.78° C | 81% | 1028.9 hPa | - | - | - | - |
| 1788482802 | 17.78° C | 79% | 1029.1 hPa | - | - | - | - |
* Rain since midnight (hover to see other rain measurements)
** Current wind speed in m/s (hover to see current wind gust speed)